{"data":{"norad_id":59746,"intl_designator":"2024-090S","name":"STARLINK-31681","alt_names":[],"object_type":"PAYLOAD","status":"ACTIVE","operator":null,"country":"US","launch_date":"2024-05-13","launch_site_code":"AFETR","launch_vehicle":null,"mission":null,"orbit_class":"UNKNOWN","rcs_meters":null,"size_class":null,"mass_kg":null,"dimensions":null,"purposes":["comms"],"wikipedia_slug":null,"has_3d_model":false,"image_url":null,"decayed_at":null,"tle_current":{"epoch":"2026-09-21T02:03:04.249440Z","epoch_age_seconds":120786,"freshness":"FRESH","line1":"1 59746U 24090S   26264.08546585 -.00000238  00000+0  86069-6 0  9995","line2":"2 59746  43.0034 153.0625 0001097 271.6453  88.4273 15.27575409133402","mean_motion":15.27575409,"eccentricity":0.0001097,"inclination_deg":43.0034,"raan_deg":153.0625,"arg_perigee_deg":271.6453,"mean_anomaly_deg":88.4273,"bstar":8.6069e-7,"rev_number":13340,"period_min":94.267032024473,"perigee_km":482.31016955689,"apogee_km":483.81551680248,"semimajor_km":6861.1998431797,"source":"CELESTRAK","updated_at":"2026-09-22T09:00:49.065175Z"}}}